Weather History for Wendover, UT

Change the Weather History Date:

Saturday, May 10, 2014

  Actual Average Record
Temperature  
Mean Temperature 48 °F -  
Max Temperature 55 °F 67 °F 89 °F (1934)
Min Temperature 42 °F 48 °F 35 °F (1933)
Degree Days  
Heating Degree Days 16    
Moisture  
Dew Point 31 °F    
Average Humidity 53    
Maximum Humidity 70    
Minimum Humidity 33    
Precipitation  
Precipitation 0.05 in - - ()
Sea Level Pressure  
Sea Level Pressure 29.91 in    
Wind  
Wind Speed 10 mph (NNW)    
Max Wind Speed 23 mph    
Max Gust Speed 31 mph    
Visibility 10 miles    
Events      
Averages and records for this station are not official NWS values.
T = Trace of Precipitation, MM = Missing Value Source: NWS Daily Summary

Daily Weather History Graph

Daily Weather History Graph

Search for Another Location

Airport:

Trip Planner

Search our weather history database for the weather conditions in past years. The results will help you decide how hot, cold, wet, or windy it might be!

Date:

Astronomy

May. 10, 2014 Rise Set
Actual Time 6:24 AM MDT 8:41 PM MDT
Civil Twilight 5:53 AM MDT 9:12 PM MDT
Nautical Twilight 5:15 AM MDT 9:50 PM MDT
Astronomical Twilight 4:34 AM MDT 10:32 PM MDT
Moon 4:40 PM MDT (5/10) 4:00 AM MDT (5/10)
Length of Visible Light 15h 18m
Length of Day
14h 17m
Waxing Gibbous, 82% of the Moon is Illuminated
May 10
Waxing Gibbous
May 14
Full
May 21
Last Quarter
May 28
New
Jun 5
First Quarter

Hourly Weather History & Observations

Time (MDT) Temp. Windchill Dew Point Humidity Pressure Visibility Wind Dir Wind Speed Gust Speed Precip Events Conditions
12:15 AM 51.8 °F - 33.8 °F 50% 29.91 in 10.0 mi NNE 8.1 mph - N/A   Scattered Clouds
12:35 AM 51.8 °F - 33.8 °F 50% 29.90 in 10.0 mi ENE 12.7 mph - N/A   Partly Cloudy
12:55 AM 51.8 °F - 32.0 °F 47% 29.91 in 10.0 mi SW 6.9 mph - N/A   Partly Cloudy
1:15 AM 50.0 °F - 33.8 °F 54% 29.92 in 10.0 mi WNW 4.6 mph - N/A   Partly Cloudy
1:35 AM 48.2 °F - 33.8 °F 58% 29.92 in 10.0 mi SSE 5.8 mph - N/A   Partly Cloudy
1:55 AM 48.2 °F - 33.8 °F 58% 29.91 in 10.0 mi SSE 9.2 mph - N/A   Scattered Clouds
2:15 AM 48.2 °F - 33.8 °F 58% 29.91 in 10.0 mi SSE 5.8 mph - N/A   Scattered Clouds
2:35 AM 48.2 °F - 33.8 °F 58% 29.91 in 10.0 mi East 4.6 mph - N/A   Partly Cloudy
2:55 AM 48.2 °F - 33.8 °F 58% 29.91 in 10.0 mi East 3.5 mph - N/A   Scattered Clouds
3:15 AM 48.2 °F - 33.8 °F 58% 29.92 in 10.0 mi Calm Calm - N/A   Partly Cloudy
3:35 AM 48.2 °F - 33.8 °F 58% 29.91 in 10.0 mi WNW 5.8 mph - N/A   Mostly Cloudy
3:55 AM 48.2 °F - 33.8 °F 58% 29.91 in 10.0 mi Calm Calm - N/A   Mostly Cloudy
4:15 AM 48.2 °F - 33.8 °F 58% 29.91 in 10.0 mi West 4.6 mph - N/A   Mostly Cloudy
4:35 AM 48.2 °F - 33.8 °F 58% 29.91 in 10.0 mi Calm Calm - N/A   Mostly Cloudy
4:55 AM 48.2 °F - 33.8 °F 58% 29.92 in 10.0 mi SSE 6.9 mph - N/A   Overcast
5:15 AM 48.2 °F - 33.8 °F 58% 29.91 in 10.0 mi SSE 5.8 mph - N/A   Mostly Cloudy
5:35 AM 48.2 °F - 33.8 °F 58% 29.91 in 10.0 mi ESE 3.5 mph - N/A   Partly Cloudy
5:55 AM 48.2 °F - 33.8 °F 58% 29.92 in 10.0 mi ESE 8.1 mph - N/A   Scattered Clouds
6:15 AM 50.0 °F - 30.2 °F 47% 29.92 in 10.0 mi Calm Calm - N/A   Overcast
6:35 AM 50.0 °F - 30.2 °F 47% 29.92 in 10.0 mi NNW 6.9 mph - N/A   Overcast
6:55 AM 50.0 °F - 28.4 °F 43% 29.92 in 10.0 mi NW 16.1 mph 21.9 mph N/A   Overcast
7:15 AM 50.0 °F - 28.4 °F 43% 29.92 in 10.0 mi NW 15.0 mph 25.3 mph N/A   Mostly Cloudy
7:35 AM 50.0 °F - 28.4 °F 43% 29.91 in 10.0 mi NW 19.6 mph 25.3 mph N/A   Mostly Cloudy
7:55 AM 48.2 °F - 28.4 °F 46% 29.92 in 10.0 mi NW 18.4 mph 25.3 mph N/A   Scattered Clouds
8:15 AM 48.2 °F - 28.4 °F 46% 29.92 in 10.0 mi NW 18.4 mph 23.0 mph N/A   Partly Cloudy
8:35 AM 50.0 °F - 28.4 °F 43% 29.93 in 10.0 mi NW 16.1 mph - N/A   Mostly Cloudy
8:55 AM 51.8 °F - 28.4 °F 41% 29.93 in 10.0 mi NNW 16.1 mph 21.9 mph N/A   Mostly Cloudy
9:15 AM 51.8 °F - 28.4 °F 41% 29.93 in 10.0 mi NNW 11.5 mph 17.3 mph N/A   Mostly Cloudy
9:35 AM 51.8 °F - 26.6 °F 38% 29.93 in 10.0 mi NW 10.4 mph - N/A   Mostly Cloudy
9:55 AM 51.8 °F - 26.6 °F 38% 29.93 in 10.0 mi NW 5.8 mph - N/A   Overcast
10:15 AM 51.8 °F - 28.4 °F 41% 29.92 in 10.0 mi North 16.1 mph - N/A   Mostly Cloudy
10:35 AM 53.6 °F - 28.4 °F 38% 29.92 in 10.0 mi North 10.4 mph - N/A   Partly Cloudy
10:55 AM 53.6 °F - 28.4 °F 38% 29.91 in 10.0 mi NNW 8.1 mph 17.3 mph N/A   Clear
11:15 AM 53.6 °F - 26.6 °F 35% 29.90 in 10.0 mi NNW 8.1 mph - N/A   Clear
11:35 AM 55.4 °F - 26.6 °F 33% 29.90 in 10.0 mi NW 16.1 mph - N/A   Mostly Cloudy
11:55 AM 53.6 °F - 28.4 °F 38% 29.90 in 10.0 mi NW 18.4 mph 26.5 mph N/A   Overcast
12:15 PM 51.8 °F - 30.2 °F 44% 29.90 in 10.0 mi NW 16.1 mph 23.0 mph N/A   Mostly Cloudy
12:35 PM 53.6 °F - 30.2 °F 41% 29.89 in 10.0 mi North 15.0 mph 24.2 mph N/A   Partly Cloudy
12:55 PM 51.8 °F - 30.2 °F 44% 29.89 in 10.0 mi NW 23.0 mph 27.6 mph N/A   Mostly Cloudy
1:15 PM 51.8 °F - 30.2 °F 44% 29.89 in 10.0 mi NNW 15.0 mph - N/A   Overcast
1:35 PM 51.8 °F - 30.2 °F 44% 29.87 in 10.0 mi NW 12.7 mph 25.3 mph N/A   Mostly Cloudy
1:55 PM 53.6 °F - 30.2 °F 41% 29.87 in 10.0 mi NNW 11.5 mph 21.9 mph N/A   Partly Cloudy
2:15 PM 50.0 °F - 28.4 °F 43% 29.88 in 10.0 mi North 8.1 mph 18.4 mph N/A   Mostly Cloudy
2:35 PM 46.4 °F 38.7 °F 32.0 °F 57% 29.90 in 8.0 mi WNW 20.7 mph 31.1 mph 0.01 in   Overcast
2:55 PM 46.4 °F 41.9 °F 35.6 °F 66% 29.88 in 10.0 mi North 9.2 mph - 0.03 in   Mostly Cloudy
3:15 PM 46.4 °F 40.7 °F 33.8 °F 62% 29.88 in 10.0 mi North 12.7 mph - N/A   Overcast
3:35 PM 48.2 °F - 33.8 °F 58% 29.87 in 10.0 mi North 10.4 mph - N/A   Overcast
3:55 PM 46.4 °F 40.1 °F 33.8 °F 62% 29.88 in 10.0 mi NNW 15.0 mph 20.7 mph N/A   Overcast
4:15 PM 46.4 °F 41.1 °F 32.0 °F 57% 29.89 in 10.0 mi North 11.5 mph 21.9 mph N/A   Overcast
4:35 PM 44.6 °F 37.4 °F 33.8 °F 66% 29.90 in 10.0 mi NNW 16.1 mph - 0.01 in   Overcast
4:55 PM 44.6 °F 41.4 °F 33.8 °F 66% 29.89 in 10.0 mi North 5.8 mph - 0.01 in   Overcast
5:15 PM 44.6 °F 41.4 °F 33.8 °F 66% 29.89 in 10.0 mi WNW 5.8 mph - N/A   Scattered Clouds
5:35 PM 46.4 °F 39.2 °F 35.6 °F 66% 29.87 in 8.0 mi NNW 18.4 mph 29.9 mph N/A   Mostly Cloudy
5:55 PM 44.6 °F 37.4 °F 33.8 °F 66% 29.89 in 10.0 mi North 16.1 mph 23.0 mph 0.01 in   Overcast
6:15 PM 44.6 °F 38.4 °F 33.8 °F 66% 29.91 in 10.0 mi North 12.7 mph 19.6 mph N/A   Overcast
6:35 PM 44.6 °F 37.2 °F 32.0 °F 61% 29.91 in 10.0 mi NNW 17.3 mph 26.5 mph N/A   Mostly Cloudy
6:55 PM 42.8 °F 35.4 °F 33.8 °F 70% 29.93 in 10.0 mi NNE 15.0 mph - N/A   Overcast
7:15 PM 42.8 °F 36.2 °F 33.8 °F 70% 29.92 in 10.0 mi North 12.7 mph - N/A   Overcast
7:35 PM 44.6 °F 38.8 °F 33.8 °F 66% 29.92 in 10.0 mi North 11.5 mph - N/A   Scattered Clouds
7:55 PM 44.6 °F 40.2 °F 30.2 °F 57% 29.92 in 10.0 mi NW 8.1 mph - N/A   Scattered Clouds
8:15 PM 44.6 °F 37.2 °F 33.8 °F 66% 29.93 in 10.0 mi West 17.3 mph - N/A   Partly Cloudy
8:35 PM 42.8 °F 38.0 °F 33.8 °F 70% 29.91 in 10.0 mi WNW 8.1 mph - N/A   Scattered Clouds
8:55 PM 42.8 °F 35.4 °F 32.0 °F 66% 29.91 in 10.0 mi NW 15.0 mph - N/A   Mostly Cloudy
9:15 PM 42.8 °F 35.4 °F 32.0 °F 66% 29.90 in 10.0 mi NW 15.0 mph - N/A   Mostly Cloudy
9:35 PM 42.8 °F 35.4 °F 32.0 °F 66% 29.92 in 10.0 mi WNW 15.0 mph 19.6 mph N/A   Mostly Cloudy
9:55 PM 42.8 °F 34.5 °F 32.0 °F 66% 29.90 in 10.0 mi NW 18.4 mph - N/A   Mostly Cloudy
10:15 PM 42.8 °F 34.3 °F 30.2 °F 61% 29.92 in 10.0 mi NW 19.6 mph 23.0 mph N/A   Partly Cloudy
10:35 PM 42.8 °F 35.1 °F 28.4 °F 57% 29.91 in 10.0 mi NW 16.1 mph 24.2 mph N/A   Clear
10:55 PM 44.6 °F 38.4 °F 28.4 °F 53% 29.90 in 10.0 mi NW 12.7 mph 16.1 mph N/A   Partly Cloudy
11:15 PM 44.6 °F 36.9 °F 24.8 °F 46% 29.89 in 10.0 mi NNW 18.4 mph 21.9 mph N/A   Scattered Clouds
11:35 PM 44.6 °F 36.9 °F 24.8 °F 46% 29.89 in 10.0 mi NNW 18.4 mph 21.9 mph N/A   Mostly Cloudy
11:55 PM 44.6 °F 37.4 °F 24.8 °F 46% 29.90 in 10.0 mi NNW 16.1 mph 24.2 mph N/A   Overcast